date,time,SUV Intensity [MED/Hr],UV Index,Daily total [MED],Since Last [MED]
21/05/2023,00:02:00,0.000,0.0,0.0,0.0
21/05/2023,00:03:01,0.000,0.0,0.0,0.0
21/05/2023,00:04:01,-0.000,0.0,0.0,0.0
21/05/2023,00:05:04,0.000,0.0,0.0,0.0
21/05/2023,00:06:02,0.001,0.0,0.0,0.0
21/05/2023,00:07:01,0.001,0.0,0.0,0.0
21/05/2023,00:08:01,0.000,0.0,0.0,0.0
21/05/2023,00:09:01,0.000,0.0,0.0,0.0
21/05/2023,00:10:01,0.000,0.0,0.0,0.0
21/05/2023,00:11:01,0.000,0.0,0.0,0.0
21/05/2023,00:12:01,0.001,0.0,0.0,0.0
21/05/2023,00:13:01,0.000,0.0,0.0,0.0
21/05/2023,00:14:00,-0.001,0.0,0.0,0.0
21/05/2023,00:15:01,-0.000,0.0,0.0,0.0
21/05/2023,00:16:01,0.000,0.0,0.0,0.0
21/05/2023,00:17:01,0.000,0.0,0.0,0.0
21/05/2023,00:18:00,0.000,0.0,0.0,0.0
21/05/2023,00:19:01,0.000,0.0,0.0,0.0
21/05/2023,00:20:01,0.000,0.0,0.0,0.0
21/05/2023,00:21:01,0.000,0.0,0.0,0.0
21/05/2023,00:22:01,-0.001,0.0,0.0,0.0
21/05/2023,00:23:01,0.001,0.0,0.0,0.0
21/05/2023,00:24:01,0.000,0.0,0.0,0.0
21/05/2023,00:25:01,0.000,0.0,0.0,0.0
21/05/2023,00:26:01,0.001,0.0,0.0,0.0
21/05/2023,00:27:01,0.000,0.0,0.0,0.0
21/05/2023,00:28:01,0.000,0.0,0.0,0.0
21/05/2023,00:29:00,0.000,0.0,0.0,0.0
21/05/2023,00:30:01,-0.001,0.0,0.0,0.0
21/05/2023,00:31:01,0.001,0.0,0.0,0.0
21/05/2023,00:32:00,0.001,0.0,0.0,0.0
21/05/2023,00:33:01,0.001,0.0,0.0,0.0
21/05/2023,00:34:01,0.001,0.0,0.0,0.0
21/05/2023,00:35:01,0.001,0.0,0.0,0.0
21/05/2023,00:36:01,-0.001,0.0,0.0,0.0
21/05/2023,00:37:01,0.000,0.0,0.0,0.0
21/05/2023,00:38:01,0.001,0.0,0.0,0.0
21/05/2023,00:39:00,0.001,0.0,0.0,0.0
21/05/2023,00:40:01,0.000,0.0,0.0,0.0
21/05/2023,00:41:01,0.000,0.0,0.0,0.0
21/05/2023,00:42:01,0.000,0.0,0.0,0.0
21/05/2023,00:43:00,0.000,0.0,0.0,0.0
21/05/2023,00:44:01,0.000,0.0,0.0,0.0
21/05/2023,00:45:01,0.001,0.0,0.0,0.0
21/05/2023,00:46:00,0.000,0.0,0.0,0.0
21/05/2023,00:47:01,0.000,0.0,0.0,0.0
21/05/2023,00:48:01,0.000,0.0,0.0,0.0
21/05/2023,00:49:00,0.000,0.0,0.0,0.0
21/05/2023,00:50:00,0.001,0.0,0.0,0.0
21/05/2023,00:51:01,0.000,0.0,0.0,0.0
21/05/2023,00:52:01,0.000,0.0,0.0,0.0
21/05/2023,00:53:01,0.001,0.0,0.0,0.0
21/05/2023,00:54:01,0.001,0.0,0.0,0.0
21/05/2023,00:55:01,0.000,0.0,0.0,0.0
21/05/2023,00:56:01,0.001,0.0,0.0,0.0
21/05/2023,00:57:01,0.000,0.0,0.0,0.0
21/05/2023,00:58:01,0.001,0.0,0.0,0.0
21/05/2023,00:59:01,0.000,0.0,0.0,0.0
21/05/2023,01:00:01,0.001,0.0,0.0,0.0
21/05/2023,01:01:01,0.000,0.0,0.0,0.0
21/05/2023,01:02:01,-0.000,0.0,0.0,0.0
21/05/2023,01:03:01,0.001,0.0,0.0,0.0
21/05/2023,01:04:00,0.000,0.0,0.0,0.0
21/05/2023,01:05:01,0.000,0.0,0.0,0.0
21/05/2023,01:06:01,0.001,0.0,0.0,0.0
21/05/2023,01:07:00,-0.000,0.0,0.0,0.0
21/05/2023,01:08:01,0.000,0.0,0.0,0.0
21/05/2023,01:09:01,0.000,0.0,0.0,0.0
21/05/2023,01:10:01,0.000,0.0,0.0,0.0
21/05/2023,01:11:01,0.000,0.0,0.0,0.0
21/05/2023,01:12:01,0.000,0.0,0.0,0.0
21/05/2023,01:13:01,0.001,0.0,0.0,0.0
21/05/2023,01:14:01,0.001,0.0,0.0,0.0
21/05/2023,01:15:01,0.000,0.0,0.0,0.0
21/05/2023,01:16:00,0.001,0.0,0.0,0.0
21/05/2023,01:17:01,0.001,0.0,0.0,0.0
21/05/2023,01:18:01,0.001,0.0,0.0,0.0
21/05/2023,01:19:01,0.001,0.0,0.0,0.0
21/05/2023,01:20:01,0.000,0.0,0.0,0.0
21/05/2023,01:21:00,0.001,0.0,0.0,0.0
21/05/2023,01:22:01,0.000,0.0,0.0,0.0
21/05/2023,01:23:01,0.001,0.0,0.0,0.0
21/05/2023,01:24:01,0.000,0.0,0.0,0.0
21/05/2023,01:25:01,0.001,0.0,0.0,0.0
21/05/2023,01:26:01,0.000,0.0,0.0,0.0
21/05/2023,01:27:01,0.001,0.0,0.0,0.0
21/05/2023,01:28:01,0.001,0.0,0.0,0.0
21/05/2023,01:29:01,-0.000,0.0,0.0,0.0
21/05/2023,01:30:01,0.001,0.0,0.0,0.0
21/05/2023,01:31:01,0.000,0.0,0.0,0.0
21/05/2023,01:32:01,0.000,0.0,0.0,0.0
21/05/2023,01:33:01,0.001,0.0,0.0,0.0
21/05/2023,01:34:01,0.001,0.0,0.0,0.0
21/05/2023,01:35:00,0.001,0.0,0.0,0.0
21/05/2023,01:36:00,-0.001,0.0,0.0,0.0
21/05/2023,01:37:01,0.001,0.0,0.0,0.0
21/05/2023,01:38:01,0.001,0.0,0.0,0.0
21/05/2023,01:39:00,0.001,0.0,0.0,0.0
21/05/2023,01:40:00,0.001,0.0,0.0,0.0
21/05/2023,01:41:01,-0.000,0.0,0.0,0.0
21/05/2023,01:42:01,0.001,0.0,0.0,0.0
21/05/2023,01:43:01,-0.000,0.0,0.0,0.0
21/05/2023,01:44:01,0.001,0.0,0.0,0.0
21/05/2023,01:45:01,0.001,0.0,0.0,0.0
21/05/2023,01:46:01,0.001,0.0,0.0,0.0
21/05/2023,01:47:01,0.001,0.0,0.0,0.0
21/05/2023,01:48:01,0.001,0.0,0.0,0.0
21/05/2023,01:49:01,0.001,0.0,0.0,0.0
21/05/2023,01:50:00,0.001,0.0,0.0,0.0
21/05/2023,01:51:01,0.001,0.0,0.0,0.0
21/05/2023,01:52:01,-0.000,0.0,0.0,0.0
21/05/2023,01:53:01,0.001,0.0,0.0,0.0
21/05/2023,01:54:01,0.001,0.0,0.0,0.0
21/05/2023,01:55:01,0.001,0.0,0.0,0.0
21/05/2023,01:56:00,0.001,0.0,0.0,0.0
21/05/2023,01:57:00,-0.000,0.0,0.0,0.0
21/05/2023,01:58:01,0.001,0.0,0.0,0.0
21/05/2023,01:59:01,0.001,0.0,0.0,0.0
21/05/2023,02:00:01,0.001,0.0,0.0,0.0
21/05/2023,02:01:01,0.001,0.0,0.0,0.0
21/05/2023,02:02:01,0.001,0.0,0.0,0.0
21/05/2023,02:03:01,0.001,0.0,0.0,0.0
21/05/2023,02:04:01,0.001,0.0,0.0,0.0
21/05/2023,02:05:01,0.001,0.0,0.0,0.0
21/05/2023,02:06:48,0.001,0.0,0.0,0.0
21/05/2023,02:08:01,0.001,0.0,0.0,0.0
21/05/2023,02:09:01,0.001,0.0,0.0,0.0
21/05/2023,02:10:01,0.001,0.0,0.0,0.0
21/05/2023,02:11:01,0.001,0.0,0.0,0.0
21/05/2023,02:12:01,0.001,0.0,0.0,0.0
21/05/2023,02:13:01,0.000,0.0,0.0,0.0
21/05/2023,02:14:01,0.000,0.0,0.0,0.0
21/05/2023,02:15:01,0.001,0.0,0.0,0.0
21/05/2023,02:16:01,0.001,0.0,0.0,0.0
21/05/2023,02:17:01,0.001,0.0,0.0,0.0
21/05/2023,02:18:01,0.001,0.0,0.0,0.0
21/05/2023,02:19:00,0.001,0.0,0.0,0.0
21/05/2023,02:20:01,0.001,0.0,0.0,0.0
21/05/2023,02:21:01,0.000,0.0,0.0,0.0
21/05/2023,02:22:01,0.001,0.0,0.0,0.0
21/05/2023,02:23:01,0.001,0.0,0.0,0.0
21/05/2023,02:24:01,0.001,0.0,0.0,0.0
21/05/2023,02:25:01,0.001,0.0,0.0,0.0
21/05/2023,02:26:01,0.001,0.0,0.0,0.0
21/05/2023,02:27:01,0.001,0.0,0.0,0.0
21/05/2023,02:28:01,0.001,0.0,0.0,0.0
21/05/2023,02:29:01,0.001,0.0,0.0,0.0
21/05/2023,02:30:01,0.001,0.0,0.0,0.0
21/05/2023,02:31:00,0.001,0.0,0.0,0.0
21/05/2023,02:32:01,0.001,0.0,0.0,0.0
21/05/2023,02:33:01,0.001,0.0,0.0,0.0
21/05/2023,02:34:01,0.001,0.0,0.0,0.0
21/05/2023,02:35:01,0.000,0.0,0.0,0.0
21/05/2023,02:36:01,0.001,0.0,0.0,0.0
21/05/2023,02:37:01,0.001,0.0,0.0,0.0
21/05/2023,02:38:01,0.001,0.0,0.0,0.0
21/05/2023,02:39:01,0.001,0.0,0.0,0.0
21/05/2023,02:40:01,0.001,0.0,0.0,0.0
21/05/2023,02:41:01,0.001,0.0,0.0,0.0
21/05/2023,02:42:01,0.001,0.0,0.0,0.0
21/05/2023,02:43:01,0.001,0.0,0.0,0.0
21/05/2023,02:44:01,0.001,0.0,0.0,0.0
21/05/2023,02:45:01,0.001,0.0,0.0,0.0
21/05/2023,02:46:00,0.001,0.0,0.0,0.0
21/05/2023,02:47:01,0.001,0.0,0.0,0.0
21/05/2023,02:48:01,0.001,0.0,0.0,0.0
21/05/2023,02:49:01,0.001,0.0,0.0,0.0
21/05/2023,02:50:01,0.001,0.0,0.0,0.0
21/05/2023,02:51:01,0.001,0.0,0.0,0.0
21/05/2023,02:52:01,0.001,0.0,0.0,0.0
21/05/2023,02:53:01,0.001,0.0,0.0,0.0
21/05/2023,02:54:01,0.001,0.0,0.0,0.0
21/05/2023,02:55:01,0.000,0.0,0.0,0.0
21/05/2023,02:56:01,0.001,0.0,0.0,0.0
21/05/2023,02:57:01,0.001,0.0,0.0,0.0
21/05/2023,02:58:01,0.001,0.0,0.0,0.0
21/05/2023,02:59:01,0.001,0.0,0.0,0.0
21/05/2023,03:00:01,0.001,0.0,0.0,0.0
21/05/2023,03:01:01,0.001,0.0,0.0,0.0
21/05/2023,03:02:01,0.001,0.0,0.0,0.0
21/05/2023,03:03:01,0.001,0.0,0.0,0.0
21/05/2023,03:04:01,0.001,0.0,0.0,0.0
21/05/2023,03:05:01,0.001,0.0,0.0,0.0
21/05/2023,03:06:01,0.001,0.0,0.0,0.0
21/05/2023,03:07:01,0.001,0.0,0.0,0.0
21/05/2023,03:08:01,0.001,0.0,0.0,0.0
21/05/2023,03:09:01,0.001,0.0,0.0,0.0
21/05/2023,03:10:01,0.001,0.0,0.0,0.0
21/05/2023,03:11:01,0.001,0.0,0.0,0.0
21/05/2023,03:12:01,0.001,0.0,0.0,0.0
21/05/2023,03:13:02,0.001,0.0,0.0,0.0
21/05/2023,03:14:01,0.001,0.0,0.0,0.0
21/05/2023,03:15:01,0.001,0.0,0.0,0.0
21/05/2023,03:16:01,0.001,0.0,0.0,0.0
21/05/2023,03:17:01,0.001,0.0,0.0,0.0
21/05/2023,03:18:01,0.001,0.0,0.0,0.0
21/05/2023,03:19:02,0.001,0.0,0.0,0.0
21/05/2023,03:20:01,0.000,0.0,0.0,0.0
21/05/2023,03:21:01,0.001,0.0,0.0,0.0
21/05/2023,03:22:01,0.001,0.0,0.0,0.0
21/05/2023,03:23:01,0.001,0.0,0.0,0.0
21/05/2023,03:24:01,0.001,0.0,0.0,0.0
21/05/2023,03:25:01,0.001,0.0,0.0,0.0
21/05/2023,03:26:02,0.001,0.0,0.0,0.0
21/05/2023,03:27:02,0.000,0.0,0.0,0.0
21/05/2023,03:28:01,0.001,0.0,0.0,0.0
21/05/2023,03:29:01,0.001,0.0,0.0,0.0
21/05/2023,03:30:01,0.001,0.0,0.0,0.0
21/05/2023,03:31:01,0.001,0.0,0.0,0.0
21/05/2023,03:32:01,0.001,0.0,0.0,0.0
21/05/2023,03:33:01,0.001,0.0,0.0,0.0
21/05/2023,03:34:01,0.001,0.0,0.0,0.0
21/05/2023,03:35:01,0.001,0.0,0.0,0.0
21/05/2023,03:36:01,0.001,0.0,0.0,0.0
21/05/2023,03:37:01,0.001,0.0,0.0,0.0
21/05/2023,03:38:01,0.001,0.0,0.0,0.0
21/05/2023,03:39:02,0.001,0.0,0.0,0.0
21/05/2023,03:40:01,0.001,0.0,0.0,0.0
21/05/2023,03:41:01,0.001,0.0,0.0,0.0
21/05/2023,03:42:01,0.001,0.0,0.0,0.0
21/05/2023,03:43:00,0.001,0.0,0.0,0.0
21/05/2023,03:44:23,0.001,0.0,0.0,0.0
21/05/2023,03:46:01,0.001,0.0,0.0,0.0
21/05/2023,03:47:01,0.001,0.0,0.0,0.0
21/05/2023,03:48:01,0.001,0.0,0.0,0.0
21/05/2023,03:49:01,0.002,0.0,0.0,0.0
21/05/2023,03:50:01,0.001,0.0,0.0,0.0
21/05/2023,03:51:01,0.002,0.0,0.0,0.0
21/05/2023,03:52:01,0.002,0.0,0.0,0.0
21/05/2023,03:53:01,0.002,0.0,0.0,0.0
21/05/2023,03:54:01,0.002,0.0,0.0,0.0
21/05/2023,03:55:01,0.001,0.0,0.0,0.0
21/05/2023,03:56:01,0.003,0.0,0.0,0.0
21/05/2023,03:57:01,0.002,0.0,0.0,0.0
21/05/2023,03:58:01,0.003,0.0,0.0,0.0
21/05/2023,03:59:01,0.002,0.0,0.0,0.0
21/05/2023,04:00:01,0.001,0.0,0.0,0.0
21/05/2023,04:01:01,0.003,0.0,0.0,0.0
21/05/2023,04:02:01,0.003,0.0,0.0,0.0
21/05/2023,04:03:01,0.003,0.0,0.0,0.0
21/05/2023,04:04:01,0.004,0.0,0.0,0.0
21/05/2023,04:05:02,0.003,0.0,0.0,0.0
21/05/2023,04:06:01,0.003,0.0,0.0,0.0
21/05/2023,04:07:01,0.003,0.0,0.0,0.0
21/05/2023,04:08:01,0.003,0.0,0.0,0.0
21/05/2023,04:09:02,0.004,0.0,0.0,0.0
21/05/2023,04:10:01,0.004,0.0,0.0,0.0
21/05/2023,04:11:01,0.004,0.0,0.0,0.0
21/05/2023,04:12:01,0.004,0.0,0.0,0.0
21/05/2023,04:13:01,0.004,0.0,0.0,0.0
21/05/2023,04:14:01,0.004,0.0,0.0,0.0
21/05/2023,04:15:01,0.004,0.0,0.0,0.0
21/05/2023,04:16:01,0.005,0.0,0.0,0.0
21/05/2023,04:17:02,0.005,0.0,0.0,0.0
21/05/2023,04:18:01,0.005,0.0,0.0,0.0
21/05/2023,04:19:02,0.005,0.0,0.0,0.0
21/05/2023,04:20:02,0.006,0.0,0.0,0.0
21/05/2023,04:21:01,0.005,0.0,0.0,0.0
21/05/2023,04:22:01,0.006,0.0,0.0,0.0
21/05/2023,04:23:02,0.005,0.0,0.0,0.0
21/05/2023,04:24:02,0.007,0.0,0.0,0.0
21/05/2023,04:25:01,0.007,0.0,0.0,0.0
21/05/2023,04:26:01,0.007,0.0,0.0,0.0
21/05/2023,04:27:01,0.007,0.0,0.001,0.001
21/05/2023,04:28:01,0.007,0.0,0.001,0.0
21/05/2023,04:29:01,0.008,0.0,0.001,0.0
21/05/2023,04:30:02,0.009,0.0,0.001,0.0
21/05/2023,04:31:01,0.009,0.0,0.001,0.0
21/05/2023,04:32:01,0.010,0.0,0.001,0.0
21/05/2023,04:33:01,0.009,0.0,0.001,0.0
21/05/2023,04:34:01,0.010,0.0,0.002,0.001
21/05/2023,04:35:01,0.010,0.0,0.002,0.0
21/05/2023,04:36:01,0.010,0.0,0.002,0.0
21/05/2023,04:37:01,0.011,0.0,0.002,0.0
21/05/2023,04:38:01,0.011,0.0,0.002,0.0
21/05/2023,04:39:01,0.012,0.0,0.002,0.0
21/05/2023,04:40:01,0.012,0.0,0.003,0.001
21/05/2023,04:41:02,0.012,0.0,0.003,0.0
21/05/2023,04:42:01,0.013,0.0,0.003,0.0
21/05/2023,04:43:02,0.013,0.0,0.003,0.0
21/05/2023,04:44:01,0.013,0.0,0.003,0.0
21/05/2023,04:45:01,0.014,0.0,0.004,0.001
21/05/2023,04:46:01,0.014,0.0,0.004,0.0
21/05/2023,04:47:01,0.015,0.0,0.004,0.0
21/05/2023,04:48:02,0.015,0.0,0.004,0.0
21/05/2023,04:49:02,0.016,0.0,0.005,0.001
21/05/2023,04:50:01,0.017,0.0,0.005,0.0
21/05/2023,04:51:01,0.017,0.0,0.005,0.0
21/05/2023,04:52:01,0.017,0.0,0.005,0.0
21/05/2023,04:53:02,0.018,0.0,0.006,0.001
21/05/2023,04:54:02,0.019,0.0,0.006,0.0
21/05/2023,04:55:01,0.020,0.0,0.006,0.0
21/05/2023,04:56:01,0.020,0.0,0.007,0.001
21/05/2023,04:57:01,0.020,0.0,0.007,0.0
21/05/2023,04:58:01,0.022,0.0,0.007,0.0
21/05/2023,04:59:01,0.022,0.0,0.008,0.001
21/05/2023,05:00:01,0.022,0.0,0.008,0.0
21/05/2023,05:01:01,0.023,0.0,0.009,0.001
21/05/2023,05:02:01,0.024,0.0,0.009,0.0
21/05/2023,05:03:01,0.024,0.0,0.009,0.0
21/05/2023,05:04:01,0.025,0.0,0.01,0.001
21/05/2023,05:05:01,0.026,0.0,0.01,0.0
21/05/2023,05:06:01,0.028,0.0,0.011,0.001
21/05/2023,05:07:02,0.028,0.0,0.011,0.0
21/05/2023,05:08:01,0.028,0.0,0.012,0.001
21/05/2023,05:09:02,0.029,0.0,0.012,0.0
21/05/2023,05:10:02,0.030,0.0,0.012,0.0
21/05/2023,05:11:01,0.031,0.0,0.013,0.001
21/05/2023,05:12:01,0.031,0.0,0.013,0.0
21/05/2023,05:13:01,0.032,0.0,0.014,0.001
21/05/2023,05:14:01,0.034,0.0,0.015,0.001
21/05/2023,05:15:01,0.035,0.0,0.015,0.0
21/05/2023,05:16:01,0.036,0.0,0.016,0.001
21/05/2023,05:17:02,0.036,0.0,0.016,0.0
21/05/2023,05:18:02,0.037,0.0,0.017,0.001
21/05/2023,05:19:01,0.038,0.0,0.018,0.001
21/05/2023,05:20:02,0.039,0.0,0.018,0.0
21/05/2023,05:21:02,0.040,0.0,0.019,0.001
21/05/2023,05:22:01,0.041,0.0,0.02,0.001
21/05/2023,05:23:01,0.042,0.0,0.02,0.0
21/05/2023,05:24:01,0.043,0.0,0.021,0.001
21/05/2023,05:25:01,0.044,0.0,0.022,0.001
21/05/2023,05:26:01,0.046,0.0,0.022,0.0
21/05/2023,05:27:01,0.047,0.0,0.023,0.001
21/05/2023,05:28:01,0.048,0.0,0.024,0.001
21/05/2023,05:29:01,0.049,0.0,0.025,0.001
21/05/2023,05:30:01,0.051,0.0,0.026,0.001
21/05/2023,05:31:01,0.052,0.0,0.026,0.0
21/05/2023,05:32:01,0.053,0.0,0.027,0.001
21/05/2023,05:33:01,0.054,0.0,0.028,0.001
21/05/2023,05:34:01,0.054,0.0,0.029,0.001
21/05/2023,05:35:02,0.057,0.0,0.03,0.001
21/05/2023,05:36:02,0.058,0.0,0.031,0.001
21/05/2023,05:37:02,0.058,0.0,0.032,0.001
21/05/2023,05:38:02,0.060,0.0,0.033,0.001
21/05/2023,05:39:01,0.061,0.0,0.034,0.001
21/05/2023,05:40:01,0.062,0.0,0.035,0.001
21/05/2023,05:41:01,0.064,0.0,0.036,0.001
21/05/2023,05:42:02,0.065,0.0,0.037,0.001
21/05/2023,05:43:02,0.067,0.0,0.038,0.001
21/05/2023,05:44:01,0.068,0.0,0.039,0.001
21/05/2023,05:45:01,0.070,0.0,0.041,0.002
21/05/2023,05:46:01,0.072,0.0,0.042,0.001
21/05/2023,05:47:01,0.074,0.0,0.043,0.001
21/05/2023,05:48:01,0.074,0.0,0.044,0.001
21/05/2023,05:49:02,0.076,0.0,0.045,0.001
21/05/2023,05:50:01,0.078,0.0,0.047,0.002
21/05/2023,05:51:02,0.080,0.0,0.048,0.001
21/05/2023,05:52:02,0.081,0.0,0.049,0.001
21/05/2023,05:53:01,0.083,0.0,0.051,0.002
21/05/2023,05:54:01,0.086,0.0,0.052,0.001
21/05/2023,05:55:02,0.090,0.0,0.054,0.002
21/05/2023,05:56:02,0.092,0.0,0.055,0.001
21/05/2023,05:57:02,0.095,0.0,0.057,0.002
21/05/2023,05:58:01,0.096,0.0,0.058,0.001
21/05/2023,05:59:01,0.098,0.0,0.06,0.002
21/05/2023,06:00:01,0.100,0.0,0.062,0.002
21/05/2023,06:01:01,0.102,0.0,0.063,0.001
21/05/2023,06:02:01,0.105,0.0,0.065,0.002
21/05/2023,06:03:01,0.107,0.0,0.067,0.002
21/05/2023,06:04:01,0.109,0.0,0.069,0.002
21/05/2023,06:05:01,0.111,0.0,0.07,0.001
21/05/2023,06:06:01,0.115,0.0,0.072,0.002
21/05/2023,06:07:02,0.116,0.0,0.074,0.002
21/05/2023,06:08:02,0.119,0.0,0.076,0.002
21/05/2023,06:09:02,0.120,0.0,0.078,0.002
21/05/2023,06:10:01,0.123,0.0,0.08,0.002
21/05/2023,06:11:01,0.125,0.0,0.082,0.002
21/05/2023,06:12:01,0.128,0.0,0.084,0.002
21/05/2023,06:13:02,0.131,0.0,0.086,0.002
21/05/2023,06:14:02,0.132,0.0,0.089,0.003
21/05/2023,06:15:02,0.135,0.0,0.091,0.002
21/05/2023,06:16:02,0.137,0.0,0.093,0.002
21/05/2023,06:17:01,0.141,0.0,0.095,0.002
21/05/2023,06:18:01,0.143,0.0,0.098,0.003
21/05/2023,06:19:01,0.147,0.0,0.1,0.002
21/05/2023,06:20:01,0.149,0.0,0.103,0.003
21/05/2023,06:21:01,0.152,0.0,0.105,0.002
21/05/2023,06:22:02,0.155,0.0,0.108,0.003
21/05/2023,06:23:01,0.157,0.0,0.11,0.002
21/05/2023,06:24:01,0.161,0.0,0.113,0.003
21/05/2023,06:25:01,0.163,0.0,0.116,0.003
21/05/2023,06:26:02,0.166,0.0,0.118,0.002
21/05/2023,06:27:02,0.171,0.0,0.121,0.003
21/05/2023,06:28:01,0.173,0.0,0.124,0.003
21/05/2023,06:29:01,0.175,0.0,0.127,0.003
21/05/2023,06:30:01,0.178,0.0,0.13,0.003
21/05/2023,06:31:02,0.181,0.0,0.133,0.003
21/05/2023,06:32:02,0.184,0.0,0.136,0.003
21/05/2023,06:33:01,0.188,0.0,0.139,0.003
21/05/2023,06:34:01,0.192,0.0,0.142,0.003
21/05/2023,06:35:01,0.195,0.0,0.146,0.004
21/05/2023,06:36:01,0.198,0.0,0.149,0.003
21/05/2023,06:37:02,0.201,0.0,0.152,0.003
21/05/2023,06:38:02,0.205,0.0,0.156,0.004
21/05/2023,06:39:02,0.209,0.0,0.159,0.003
21/05/2023,06:40:01,0.214,0.0,0.163,0.004
21/05/2023,06:41:01,0.218,1.0,0.166,0.003
21/05/2023,06:42:01,0.219,1.0,0.17,0.004
21/05/2023,06:43:01,0.225,1.0,0.174,0.004
21/05/2023,06:44:01,0.228,1.0,0.177,0.003
21/05/2023,06:45:01,0.232,1.0,0.181,0.004
21/05/2023,06:46:01,0.236,1.0,0.185,0.004
21/05/2023,06:47:01,0.239,1.0,0.189,0.004
21/05/2023,06:48:01,0.243,1.0,0.193,0.004
21/05/2023,06:49:01,0.247,1.0,0.197,0.004
21/05/2023,06:50:01,0.253,1.0,0.201,0.004
21/05/2023,06:51:01,0.257,1.0,0.205,0.004
21/05/2023,06:52:02,0.261,1.0,0.21,0.005
21/05/2023,06:53:02,0.265,1.0,0.214,0.004
21/05/2023,06:54:02,0.271,1.0,0.219,0.005
21/05/2023,06:55:01,0.273,1.0,0.223,0.004
21/05/2023,06:56:02,0.277,1.0,0.228,0.005
21/05/2023,06:57:01,0.282,1.0,0.232,0.004
21/05/2023,06:58:01,0.285,1.0,0.237,0.005
21/05/2023,06:59:01,0.290,1.0,0.242,0.005
21/05/2023,07:00:02,0.295,1.0,0.247,0.005
21/05/2023,07:01:02,0.299,1.0,0.252,0.005
21/05/2023,07:02:02,0.303,1.0,0.257,0.005
21/05/2023,07:03:02,0.309,1.0,0.262,0.005
21/05/2023,07:04:01,0.313,1.0,0.267,0.005
21/05/2023,07:05:01,0.318,1.0,0.272,0.005
21/05/2023,07:06:02,0.322,1.0,0.278,0.006
21/05/2023,07:07:02,0.327,1.0,0.283,0.005
21/05/2023,07:08:01,0.332,1.0,0.288,0.005
21/05/2023,07:09:02,0.337,1.0,0.294,0.006
21/05/2023,07:10:01,0.341,1.0,0.3,0.006
21/05/2023,07:11:01,0.347,1.0,0.305,0.005
21/05/2023,07:12:02,0.352,1.0,0.311,0.006
21/05/2023,07:13:02,0.357,1.0,0.317,0.006
21/05/2023,07:14:01,0.362,1.0,0.323,0.006
21/05/2023,07:15:01,0.368,1.0,0.329,0.006
21/05/2023,07:16:01,0.372,1.0,0.336,0.007
21/05/2023,07:17:02,0.376,1.0,0.342,0.006
21/05/2023,07:18:02,0.381,1.0,0.348,0.006
21/05/2023,07:19:02,0.387,1.0,0.355,0.007
21/05/2023,07:20:02,0.391,1.0,0.361,0.006
21/05/2023,07:21:01,0.399,1.0,0.368,0.007
21/05/2023,07:22:01,0.403,1.0,0.374,0.006
21/05/2023,07:23:02,0.408,1.0,0.381,0.007
21/05/2023,07:24:02,0.414,1.0,0.388,0.007
21/05/2023,07:25:01,0.420,1.0,0.395,0.007
21/05/2023,07:26:01,0.425,1.0,0.402,0.007
21/05/2023,07:27:01,0.430,1.0,0.409,0.007
21/05/2023,07:28:02,0.436,1.0,0.416,0.007
21/05/2023,07:29:02,0.441,1.0,0.424,0.008
21/05/2023,07:30:02,0.447,1.0,0.431,0.007
21/05/2023,07:31:02,0.452,1.0,0.438,0.007
21/05/2023,07:32:02,0.458,1.0,0.446,0.008
21/05/2023,07:33:01,0.464,1.0,0.454,0.008
21/05/2023,07:34:01,0.469,1.0,0.461,0.007
21/05/2023,07:35:01,0.476,1.0,0.469,0.008
21/05/2023,07:36:02,0.481,1.0,0.477,0.008
21/05/2023,07:37:01,0.487,1.0,0.485,0.008
21/05/2023,07:38:01,0.493,1.0,0.494,0.009
21/05/2023,07:39:01,0.499,1.0,0.502,0.008
21/05/2023,07:40:02,0.505,1.0,0.51,0.008
21/05/2023,07:41:02,0.510,1.0,0.519,0.009
21/05/2023,07:42:01,0.517,1.0,0.527,0.008
21/05/2023,07:43:01,0.524,1.0,0.536,0.009
21/05/2023,07:44:01,0.529,1.0,0.544,0.008
21/05/2023,07:45:01,0.536,1.0,0.553,0.009
21/05/2023,07:46:01,0.541,1.0,0.563,0.01
21/05/2023,07:47:01,0.549,1.0,0.572,0.009
21/05/2023,07:48:02,0.555,1.0,0.581,0.009
21/05/2023,07:49:02,0.560,1.0,0.59,0.009
21/05/2023,07:50:01,0.566,1.0,0.599,0.009
21/05/2023,07:51:01,0.564,1.0,0.609,0.01
21/05/2023,07:52:02,0.575,1.0,0.618,0.009
21/05/2023,07:53:02,0.586,1.0,0.628,0.01
21/05/2023,07:54:02,0.591,1.0,0.638,0.01
21/05/2023,07:55:02,0.592,1.0,0.648,0.01
21/05/2023,07:56:02,0.606,1.0,0.658,0.01
21/05/2023,07:57:03,0.614,1.0,0.668,0.01
21/05/2023,07:58:02,0.621,1.0,0.678,0.01
21/05/2023,07:59:01,0.628,1.0,0.688,0.01
21/05/2023,08:00:02,0.635,1.0,0.699,0.011
21/05/2023,08:01:02,0.643,1.0,0.71,0.011
21/05/2023,08:02:02,0.650,1.0,0.72,0.01
21/05/2023,08:03:02,0.657,2.0,0.731,0.011
21/05/2023,08:04:01,0.661,2.0,0.742,0.011
21/05/2023,08:05:02,0.668,2.0,0.753,0.011
21/05/2023,08:06:02,0.677,2.0,0.764,0.011
21/05/2023,08:07:01,0.685,2.0,0.776,0.012
21/05/2023,08:08:01,0.697,2.0,0.787,0.011
21/05/2023,08:09:02,0.668,2.0,0.798,0.011
21/05/2023,08:10:01,0.698,2.0,0.81,0.012
21/05/2023,08:11:02,0.711,2.0,0.821,0.011
21/05/2023,08:12:02,0.720,2.0,0.833,0.012
21/05/2023,08:13:02,0.727,2.0,0.845,0.012
21/05/2023,08:14:01,0.736,2.0,0.858,0.013
21/05/2023,08:15:01,0.741,2.0,0.87,0.012
21/05/2023,08:16:02,0.750,2.0,0.882,0.012
21/05/2023,08:17:02,0.758,2.0,0.895,0.013
21/05/2023,08:18:02,0.765,2.0,0.908,0.013
21/05/2023,08:19:02,0.773,2.0,0.92,0.012
21/05/2023,08:20:02,0.780,2.0,0.933,0.013
21/05/2023,08:21:01,0.788,2.0,0.946,0.013
21/05/2023,08:22:39,0.803,2.0,0.968,0.022
21/05/2023,08:24:01,0.793,2.0,0.986,0.018
21/05/2023,08:25:01,0.815,2.0,1.0,0.014
21/05/2023,08:26:02,0.828,2.0,1.013,0.013
21/05/2023,08:27:02,0.834,2.0,1.027,0.014
21/05/2023,08:28:02,0.843,2.0,1.041,0.014
21/05/2023,08:29:02,0.847,2.0,1.055,0.014
21/05/2023,08:30:02,0.855,2.0,1.069,0.014
21/05/2023,08:31:02,0.863,2.0,1.084,0.015
21/05/2023,08:32:02,0.868,2.0,1.098,0.014
21/05/2023,08:33:01,0.870,2.0,1.113,0.015
21/05/2023,08:34:01,0.885,2.0,1.127,0.014
21/05/2023,08:35:02,0.894,2.0,1.142,0.015
21/05/2023,08:36:02,0.903,2.0,1.157,0.015
21/05/2023,08:37:01,0.912,2.0,1.172,0.015
21/05/2023,08:38:01,0.918,2.0,1.187,0.015
21/05/2023,08:39:01,0.925,2.0,1.203,0.016
21/05/2023,08:40:01,0.935,2.0,1.218,0.015
21/05/2023,08:41:02,0.944,2.0,1.234,0.016
21/05/2023,08:42:02,0.951,2.0,1.25,0.016
21/05/2023,08:43:02,0.960,2.0,1.266,0.016
21/05/2023,08:44:02,0.966,2.0,1.282,0.016
21/05/2023,08:45:02,0.978,2.0,1.298,0.016
21/05/2023,08:46:02,0.986,2.0,1.314,0.016
21/05/2023,08:47:01,0.992,2.0,1.331,0.017
21/05/2023,08:48:02,1.000,2.0,1.347,0.016
21/05/2023,08:49:02,1.009,2.0,1.364,0.017
21/05/2023,08:50:02,1.017,2.0,1.381,0.017
21/05/2023,08:51:01,1.024,2.0,1.398,0.017
21/05/2023,08:52:02,1.028,2.0,1.415,0.017
21/05/2023,08:53:02,1.039,2.0,1.432,0.017
21/05/2023,08:54:02,1.042,2.0,1.45,0.018
21/05/2023,08:55:02,1.053,2.0,1.467,0.017
21/05/2023,08:56:02,1.061,2.0,1.485,0.018
21/05/2023,08:57:01,1.072,2.0,1.502,0.017
21/05/2023,08:58:01,1.053,2.0,1.52,0.018
21/05/2023,08:59:01,1.078,2.0,1.538,0.018
21/05/2023,09:00:01,1.096,3.0,1.556,0.018
21/05/2023,09:01:02,1.101,3.0,1.574,0.018
21/05/2023,09:02:01,1.110,3.0,1.593,0.019
21/05/2023,09:03:01,1.123,3.0,1.612,0.019
21/05/2023,09:04:02,1.125,3.0,1.63,0.018
21/05/2023,09:05:02,1.132,3.0,1.649,0.019
21/05/2023,09:06:02,1.133,3.0,1.668,0.019
21/05/2023,09:07:02,1.147,3.0,1.687,0.019
21/05/2023,09:08:02,1.155,3.0,1.706,0.019
21/05/2023,09:09:01,1.160,3.0,1.725,0.019
21/05/2023,09:10:02,1.176,3.0,1.745,0.02
21/05/2023,09:11:01,1.188,3.0,1.765,0.02
21/05/2023,09:12:01,1.184,3.0,1.784,0.019
21/05/2023,09:13:01,1.202,3.0,1.804,0.02
21/05/2023,09:14:02,1.212,3.0,1.824,0.02
21/05/2023,09:15:02,1.222,3.0,1.845,0.021
21/05/2023,09:16:02,1.218,3.0,1.865,0.02
21/05/2023,09:17:02,1.234,3.0,1.885,0.02
21/05/2023,09:18:01,1.243,3.0,1.906,0.021
21/05/2023,09:19:01,1.255,3.0,1.927,0.021
21/05/2023,09:20:01,1.264,3.0,1.948,0.021
21/05/2023,09:21:02,1.271,3.0,1.969,0.021
21/05/2023,09:22:04,1.283,3.0,1.991,0.022
21/05/2023,09:23:02,1.288,3.0,2.012,0.021
21/05/2023,09:24:02,1.276,3.0,2.033,0.021
21/05/2023,09:25:02,1.307,3.0,2.055,0.022
21/05/2023,09:26:02,1.313,3.0,2.077,0.022
21/05/2023,09:27:02,1.325,3.0,2.099,0.022
21/05/2023,09:28:02,1.334,3.0,2.121,0.022
21/05/2023,09:29:02,1.337,3.0,2.143,0.022
21/05/2023,09:30:01,1.349,3.0,2.165,0.022
21/05/2023,09:31:01,1.355,3.0,2.188,0.023
21/05/2023,09:32:02,1.361,3.0,2.211,0.023
21/05/2023,09:33:02,1.377,3.0,2.233,0.022
21/05/2023,09:34:02,1.382,3.0,2.256,0.023
21/05/2023,09:35:02,1.392,3.0,2.279,0.023
21/05/2023,09:36:02,1.395,3.0,2.303,0.024
21/05/2023,09:37:01,1.405,3.0,2.326,0.023
21/05/2023,09:38:02,1.419,3.0,2.349,0.023
21/05/2023,09:39:02,1.422,3.0,2.373,0.024
21/05/2023,09:40:02,1.420,3.0,2.397,0.024
21/05/2023,09:41:02,1.439,3.0,2.421,0.024
21/05/2023,09:42:02,1.428,3.0,2.445,0.024
21/05/2023,09:43:01,1.454,3.0,2.469,0.024
21/05/2023,09:44:01,1.460,3.0,2.493,0.024
21/05/2023,09:45:02,1.466,3.0,2.517,0.024
21/05/2023,09:46:02,1.490,3.0,2.541,0.024
21/05/2023,09:47:02,1.500,3.0,2.566,0.025
21/05/2023,09:48:02,1.047,2.0,2.584,0.018
21/05/2023,09:49:01,1.492,3.0,2.606,0.022
21/05/2023,09:50:01,1.473,3.0,2.632,0.026
21/05/2023,09:51:02,1.540,4.0,2.656,0.024
21/05/2023,09:52:02,1.166,3.0,2.682,0.026
21/05/2023,09:53:02,1.002,2.0,2.702,0.02
21/05/2023,09:54:01,0.978,2.0,2.721,0.019
21/05/2023,09:55:01,1.335,3.0,2.737,0.016
21/05/2023,09:56:01,1.570,4.0,2.764,0.027
21/05/2023,09:57:02,1.586,4.0,2.79,0.026
21/05/2023,09:58:02,1.637,4.0,2.817,0.027
21/05/2023,09:59:02,1.658,4.0,2.843,0.026
21/05/2023,10:00:01,1.682,4.0,2.871,0.028
21/05/2023,10:01:02,1.682,4.0,2.899,0.028